Погода в Умбе

Хотите узнать прогноз погоды в Умбе? Тогда Вам сюда: Погода в Умбе

Поиск расширенной информации на нашем сайте:

Полезная информация:

Новости сайта



02.01.2020
Опубликован Долгосрочный прогноз погоды по городам России и ближнего зарубежья на январь 2020 года.
Карты: Прогноз на январь и февраль 2020 года, Сравнение прогнозируемой аномалии приземной температуры воздуха на январь 2020 года по разным моделям.




Погода в Умбе - сегодня

Время (UTC), дата Ветер
(°,м/с) 
Видим.   Явления Облачность Т
(°С)
Тd
(°С)
f(%) Тe
(°С)
Pmin
(гПа)
dP
(гПа)
Po
(мм)
O2
(г/м3)
Тmin Tmax R s Состояние
почвы
15 29.11.20 250 (З) 5-8{10}  20000 м  слаб. ливневой снег  10/10 300 м кучево-дожд. 
[Cb cap]
-1.2 -3.2 86 -4  1029.6  -0.5  768  311      0.5     
18 29.11.20 250 (З) 6-10{10}  10 км  слаб. ливневой снег  10/10 300 м кучево-дожд. 
[Cb cap]
-1.2 -3.6 84 -5  1028.8  -0.8  768  311    -1.1  0.7     
21 29.11.20 220 (ЮЗ) 8-11{12}  20000 м  слаб. ливневой снег  10/10 300 м кучево-дожд. 
[Cb cap]
-0.9 -2.2 91 -5  1027.9  -1  767  310           
00 30.11.20 220 (ЮЗ) 8-11{12}  20000 м  слаб. ливневой снег  9/9 300 м кучево-дожд. 
[Cb cap]
-1.7 -2.8 92 -6  1027.2  -0.7  767  311           
03 30.11.20 220 (ЮЗ) 8-13{13}  20000 м  позёмок{ливн. осадки}  10/10 300 м кучево-дожд. 
[Cb cap]
-1.4 -3 89 -6  1025.7  -1.4  766  310  -1.8    0.4     
06 30.11.20 220 (ЮЗ) 8-11{14}  50000 м  позёмок{ливн. осадки}  10/10 300 м кучево-дожд. 
[Cb cap]
-1.9 -3.2 91 -7  1025.1  -0.7  765  311  -1.9    0.2  12  равномерный
сухой снег
100% 
09 30.11.20 210 (ЮЗ) 6-10{12}  50000 м  позёмок  10/10 600 м кучево-дожд. 
[Cb cap]
-2.5 -4.3 87 -6  1024.7  -0.4  765  311           
12 30.11.20 210 (ЮЗ) 5-9{10}  50000 м    10/10 600 м кучево-дожд. 
[Cb cap]
-2.2 -3.8 89 -6  1023  -1.7  763  311           
15 30.11.20 200 (Ю) 4-8  50000 м    10/10 300 м кучево-дожд. 
[Cb cap]
-1.5 -2.5 93 -4  1020.8  -2.2  762  309           
18 30.11.20 210 (ЮЗ) 5-8  20000 м  слаб. ливневой снег  10/10 300 м кучево-дожд. 
[Cb cap]
-0.8 -1.8 93 -4  1018.6  -2.1  760  307    -0.8  0.0     
21 30.11.20 200 (Ю) 4-7  20000 м  слаб. ливневой снег  10/10 300 м кучево-дожд. 
[Cb cap]
-0.4 -1.2 94 -3  1017.1  -1.5  759  306           
00 01.12.20 210 (ЮЗ) 5-9{10}  20000 м  {ливн. осадки}  10/10 300 м кучево-дожд. 
[Cb cap]
+0.5 -0.1 96 -2  1015.3  -1.8  758  305           
03 01.12.20 220 (ЮЗ) 6-10{10}  20000 м    10/10 300 м кучево-дожд. 
[Cb cap]
+0.7 -0.5 92 -3  1013.5  -1.8  756  304  -1.4    0.0     
06 01.12.20 230 (ЮЗ) 6-9{10}  20000 м  {ливн. осадки}  10/10 300 м кучево-дожд. 
[Cb cap]
+0.4 -0.9 91 -3  1012.3  -1.2  755  304  -0.8    0.0  12  равномерный
сухой снег
100% 
09 01.12.20 250 (З) 5-10{12}  20000 м  {ливн. осадки}  10/10 300 м кучево-дожд. 
[Cb cap]
+0.3 -1.5 88 -3  1012.3  0.1  756  304           
12 01.12.20 240 (ЮЗ) 7-11{14}  20000 м  {ливн. осадки}  10/10 300 м кучево-дожд. 
[Cb cap]
+0.2 -1.9 86 -4  1012.4  0.1  756  304           
15 01.12.20 230 (ЮЗ) 6-10{12}  20000 м  слаб. ливневой снег  10/10 300 м кучево-дожд. 
[Cb cap]
-0.1 -1.9 88 -4  1013  0.5  756  305      0.0     
18 01.12.20 240 (ЮЗ) 4-8{11}  4000 м  слаб. ливневой снег  10/10 300 м кучево-дожд. 
[Cb cap]
-0.9 -1.5 96 -3  1014.2  1.2  757  306    +0.5  0.2     
21 01.12.20 250 (З) 3-6  20000 м  слаб. ливневой снег  10/10 300 м кучево-дожд. 
[Cb cap]
-0.9 -1.8 94 -3  1015.7  1.5  758  307           
00 02.12.20 240 (ЮЗ) 1-3  50000 м  в посл. час ливневой снег  10/10 600 м кучево-дожд. 
[Cb cap]
-0.9 -1.6 95 1017.7  760  307           
03 02.12.20 300 (СЗ) 1-2  50000 м    10/10 600 м кучево-дожд. 
[Cb cap]
-1.1 -1.6 96 -1  1019.5  1.8  761  308  -1.2    0.4     
06 02.12.20 150 (ЮВ) 1-1  20000 м  слаб. ливневой снег  10/10 600 м кучево-дожд. 
[Cb cap]
-1.2 -1.4 99 -1  1020.9  1.4  762  309  -1.4    0.2  11  равномерный
сухой снег
100% 
09 02.12.20 240 (ЮЗ) 3-5  50000 м  {ливн. осадки}  10/10 600 м кучево-дожд. 
[Cb cap]
-0.1 -0.4 98 -2  1021.5  0.6  762  307           
12 02.12.20 240 (ЮЗ) 4-7  50000 м  {ливн. осадки}  10/10 600 м кучево-дожд. 
[Cb cap]
-1.5 -3.1 89 -4  1021.7  0.1  762  309           
15 02.12.20 250 (З) 5-8  20000 м  в посл. час ливневой снег  10/10 300 м кучево-дожд. 
[Cb cap]
-3.2 -4.2 93 -7  1022.2  0.5  763  312      0.3     
Время (UTC), дата Ветер
(°,м/с) 
Видим.   Явления Облачность Т
(°С)
Тd
(°С)
f(%) Тe
(°С)
Pmin
(гПа)
dP
(гПа)
Po
(мм)
O2
(г/м3)
Тmin Tmax R s Состояние
почвы

Для получения пояснительной информации подведите курсор к названию столбца.

ПОГОДА в Умбе - архив

Всё, что Вы хотите узнать о погоде в Умбе - удобно и подробно!

Выберите нужную дату (начиная с 1 января 2019* года) и нажмите кнопку "Найти".
Будут отображены архивные сводки погоды по пункту Умба, начиная с указанной даты.


Отображать данные в формате CSV (для использования в таблицах Excel)


Внимание! Наш архив погоды предназначен исключительно для личного некоммерческого использования в познавательных целях. Если Вам необходимы официальные справки о состоянии погоды (для производственных, юридических, коммерческих и т.п. целей), обращайтесь в органы Росгидромета.

*Примечание: данная дата относится к архиву по метеостанциям СССР (Россия, СНГ, Балтия).
Архив по метеостанциям Зарубежной Европы и Азии (кроме Китая) хранится 10 дней, по другим регионам земного шара (Китай, Африка, Америка, Австралия, Океания) - 1 день.

Умба - район местоположения метеостанции


Название, широта, долгота, высота метеостанции:
Умба 66.7°ш. 34.3°д. 40 м над ур. моря [Российская Федерация]

Дополнительная информация

В oтличие oт бoльшинства пoгoдных сайтoв мы публикуем пoдрoбную метеoинфoрмацию в детальнoм прoфессиoнальнoм фoрмате.

Характеристики температуры и влажнoсти вoздуха измеряются на высoте 2 м в тени вдали oт зданий и деревьев.
Скoрoсть ветра измеряется на высoте 10 м (на урoвне рoста челoвека скoрoсть ветра ниже в 1.5-2 раза). Если метеoстанция нахoдится в гoрoде или в лесу, тo скoрoсть ветра занижена на 2-4 м/с пo сравнению с oткрытым местoм. Скoрoсть ветра над акватoриями крупных рек и oзёр, а также на вершинах хoлмoв на 2-5 м/с выше, чем в oбычных услoвиях.
Атмoсфернoе давление в разных тoчках местнoсти мoжет значительнo oтличаться oт давления на метеoстанции, в зависимoсти oт услoвий рельефа (при пoдъёме на 10 м давление пoнижается примернo на 1 мм рт.ст.).